This is the latest recevied weather packets stored in our database for station/object KB4MOX. If no packets are shown the sender has not sent any weather packets the latest 10 day(s).
| Time | Temp. | Humidity | Pressure | Rain* | Wind** | Luminosity | Snow |
|---|---|---|---|---|---|---|---|
| 1788548012 | 33.33° C | 54% | 1016.1 hPa | 0 mm | - | 788 W/m² | - |
| 1788547712 | 32.78° C | 56% | 1016 hPa | 0 mm | - | 801 W/m² | - |
| 1788547407 | 34.44° C | 52% | 1016 hPa | 0 mm | - | 165 W/m² | - |
| 1788547103 | 33.89° C | 54% | 1016.3 hPa | 0 mm | - | 826 W/m² | - |
| 1788546798 | 33.89° C | 52% | 1016.4 hPa | 0 mm | - | 822 W/m² | - |
| 1788546493 | 32.78° C | 55% | 1016.3 hPa | 0 mm | - | 813 W/m² | - |
| 1788546188 | 32.78° C | 55% | 1016.4 hPa | 0 mm | - | 807 W/m² | - |
| 1788545884 | 32.78° C | 57% | 1016.4 hPa | 0 mm | - | 874 W/m² | - |
| 1788545583 | 33.33° C | 56% | 1016.7 hPa | 0 mm | - | 168 W/m² | - |
| 1788545279 | 33.33° C | 55% | 1016.6 hPa | 0 mm | - | 375 W/m² | - |
| 1788544974 | 32.78° C | 57% | 1016.5 hPa | 0 mm | - | 250 W/m² | - |
| 1788544672 | 32.78° C | 58% | 1016.7 hPa | 0 mm | - | 349 W/m² | - |
| 1788544371 | 31.67° C | 59% | 1016.8 hPa | 0 mm | - | 256 W/m² | - |
| 1788544066 | 32.22° C | 59% | 1017.1 hPa | 0 mm | - | 150 W/m² | - |
| 1788543763 | 32.78° C | 58% | 1017 hPa | 0 mm | - | 199 W/m² | - |
| 1788543458 | 32.78° C | 58% | 1017.1 hPa | 0 mm | - | 175 W/m² | - |
| 1788543158 | 32.78° C | 57% | 1017.1 hPa | 0 mm | - | 974 W/m² | - |
| 1788542855 | 32.78° C | 58% | 1017.1 hPa | 0 mm | - | 935 W/m² | - |
| 1788542553 | 32.22° C | 58% | 1017.1 hPa | 0 mm | - | 214 W/m² | - |
| 1788542249 | 32.78° C | 59% | 1017.2 hPa | 0 mm | - | 975 W/m² | - |
| 1788541944 | 32.78° C | 58% | 1017.1 hPa | 0 mm | - | 139 W/m² | - |
| 1788541640 | 32.78° C | 57% | 1017.3 hPa | 0 mm | - | 948 W/m² | - |
| 1788541344 | 32.22° C | 60% | 1017.4 hPa | 0 mm | - | 959 W/m² | - |
| 1788541035 | 31.11° C | 61% | 1017.4 hPa | 0 mm | - | 841 W/m² | - |
| 1788540735 | 31.67° C | 61% | 1017.4 hPa | 0 mm | - | 170 W/m² | - |
* Rain latest hour (hover to see other rain measurements)
** Current wind speed in m/s (hover to see current wind gust speed)